User: anonymous   Login
Location: Unspecified
(0.0000°N, 0.0000°E)
Time: 14:40:18
(UTC+01:00)
Language:

NAVSTAR 65 (USA 213) - Orbit

View from above orbital plane
View from above orbital plane
View from above satellite
View from above satellite

Ground track
Ground track

The orbit data is extracted from the following two-line orbital elements,

1 36585U 10022A   18022.05251913 -.00000049  00000-0  00000+0 0  9994
2 36585  55.8889 331.9411 0068758  44.7785 207.3477  2.00561193 56045
Epoch (UTC): 22 January 2018 01:15:37
Eccentricity: 0.0068758
inclination: 55.8889°
perigee height: 19999 km
apogee height: 20365 km
right ascension of ascending node: 331.9411°
argument of perigee: 44.7785°
revolutions per day: 2.00561193
mean anomaly at epoch: 207.3477°
orbit number at epoch: 5604

The dashed part of the orbit path shows where the satellite is in the earth's shadow,  

DLR